Location: Krakow
(50.0830°N, 19.9170°E)
Time: 06:46:06
(UTC+02:00)

A-11 Canister half - Pass Details

Date: 22 March 2026
Orbit: 1523 x 1684 km, 47.3° (Epoch: 18 April)

Event Time Altitude Azimuth Distance (km) Brightness Sun altitude
Rises 10:36:10 0° 269° (W) 4,879 11.5 38.4°
Reaches altitude 10° 10:39:20 10° 268° (W) 3,873 11.0 38.5°
Maximum altitude 10:49:10 76° 186° (S) 1,639 10.2 39.1°
Drops below altitude 10° 10:58:39 10° 103° (ESE) 3,743 11.5 39.6°
Sets 11:01:40 0° 102° (ESE) 4,709 11.8 39.7°
